sat.trackr.live / text

‹ back to catalog

STARLINK-2725

NORAD 48681 · 2021-044AV

PAYLOAD ACTIVE UNKNOWN

§ Identity

Operator
Country
US
Launch date
2021-05-26
Launch site
AFETR
Launch vehicle
Mass (kg)
RCS (m²)

Purposes: comms

External: N2YO · Heavens-Above · Gunter

§ Orbital elements

Epoch: 2026-09-19T10:41:15.382752Z

Period
94.01 min
Inclination
53.1590°
Eccentricity
0.0001285
Mean motion
15.31711265 rev/d
Perigee alt
469.8 km
Apogee alt
471.6 km
Semi-major
6,848.8 km
B*
8.8398e-5
RAAN
253.9170°
Arg perigee
77.5110°
Mean anomaly
282.6035°
Rev number
29,404

§ Raw data

STARLINK-27251 48681U 21044AV  26262.44531693  .00002380  00000+0  88398-4 0  99932 48681  53.1590 253.9170 0001285  77.5110 282.6035 15.31711265294043

JSON: /api/v1/satellites/48681 · /tle

For live sub-satellite position, see the globe view (requires WebGL).

§ Visibility from observer

Set your observer location to see the next 7 days of passes ≥ 10°. The values pass through the URL so the page stays shareable.

No JS? Fill the form by hand. The geolocation button needs JavaScript.